Vorticity
1 1 1 1 1 4 2 2 9 8 6 6 10 9 4 3 2 2 2 1 1 2 3 5 5 5 6 4 5 4 4 5 6 5 5 6 5 6 6 9 4 7 7
8 12 13 13 13 13 14 13 8 6 6 9 9 10 11 8 5 3 3 3 4 4 5 6 3 6 6 5 5 4 4 6 7 7 7 8 5 5 4 10 8 1 9
10 11 12 12 10 8 8 9 7 8 9 6 6 5 6 9 9 8 7 6 5 5 5 5 5 5 5 5 4 4 5 7 7 8 9 5 3 9 6 9 6 8 7
11 10 11 10 8 8 8 8 8 7 7 5 5 5 5 6 7 8 9 9 9 8 8 6 5 6 6 6 6 7 6 7 8 9 6 4 10 7 11 6 7 10 6
10 9 9 11 13 14 15 13 14 13 14 14 14 14 13 12 10 10 11 10 8 7 6 5 5 5 6 5 7 7 6 9 9 8 7 12 6 12 9 7 9 7 7
9 8 9 8 7 6 6 6 5 4 5 3 3 4 2 3 5 6 5 4 5 4 4 6 5 6 6 7 7 5 8 6 10 10 11 9 12 12 9 7 7 7 7
4 3 3 3 3 3 4 4 4 6 7 6 7 6 7 7 6 4 3 3 5 5 6 9 6 7 7 7 8 8 5 10 9 9 5 8 15 6 10 9 11 7 8
5 5 5 5 5 5 5 4 4 3 3 4 4 3 4 5 7 7 7 6 6 5 6 6 8 8 7 7 10 8 11 11 9 7 8 15 8 25 7 13 14 6 6
4 4 3 3 3 3 2 2 2 3 3 1 4 6 9 4 4 1 6 8 11 9 11 9 10 12 12 12 11 12 9 7 6 7 16 5 12 15 9 11 12 11 6
2 2 2 2 3 5 7 10 13 13 15 13 12 13 13 15 16 14 9 9 14 17 18 13 10 10 10 7 9 9 8 9 12 9 8 8 15 13 10 2 10 7 6
4 7 11 14 13 11 8 5 3 3 4 4 4 4 3 3 3 7 8 7 3 11 12 9 7 10 8 10 8 9 9 5 9 11 9 7 14 12 15 5 6 4 9
11 5 3 3 4 6 7 6 6 6 6 7 8 8 9 8 7 6 7 8 7 7 11 6 -3 22 6 7 6 9 5 11 7 7 13 2 10 10 17 4 3 8 4
5 6 7 8 6 3 1 2 2 3 2 1 1 3 4 3 4 7 6 7 6 6 3 5 9 -7 1 -2 0 -6 3 7 7 -1 -4 3 4 6 18 -4 2 7 10
3 3 2 2 2 2 3 4 4 4 4 3 3 3 3 5 6 6 7 12 11 10 9 10 6 8 8 15 10 13 19 11 -2 6 21 16 11 12 17 -1 -5 -1 20
5 3 4 2 2 3 4 4 3 4 5 6 9 13 13 13 12 13 12 11 15 14 5 10 10 7 10 15 16 11 8 17 18 14 6 8 10 12 2 6 -3 -6 17
4 4 4 5 4 3 3 3 2 1 4 6 10 11 13 11 11 15 11 10 13 19 17 18 16 20 21 14 13 15 15 9 18 11 7 11 7 7 6 28 17 4 1
5 5 5 5 3 2 4 6 7 11 13 15 16 19 18 18 20 18 19 18 15 18 14 18 19 21 15 14 15 15 14 17 14 7 14 12 3 13 9 10 13 3 20
5 8 1 1 7 10 11 14 15 15 16 26 32 33 31 24 25 23 25 23 14 7 10 13 12 18 14 10 14 14 15 15 15 9 8 10 9 3 18 10 4 23 13
2 3 5 6 7 17 17 17 24 31 31 25 21 17 14 16 16 17 16 14 11 10 13 12 16 14 11 12 5 15 12 8 11 14 15 10 14 14 5 13 6 5 23
2 4 14 16 20 18 25 31 27 21 18 17 15 14 13 11 9 9 9 10 12 14 14 12 11 9 13 17 13 17 17 12 10 13 13 14 10 13 6 -16 18 9 21
8 18 19 20 21 25 21 15 13 12 11 6 4 4 4 5 6 6 7 8 8 9 9 8 9 15 14 13 11 13 13 11 14 10 11 16 12 5 8 9 12 28 3
22 26 25 23 21 17 14 8 6 6 6 3 4 5 4 5 7 8 7 6 7 12 12 12 10 9 9 10 10 9 9 6 8 10 13 14 14 18 -3 42 -37 53 3
25 21 19 17 14 10 6 3 3 3 5 4 3 4 4 5 10 15 17 17 18 18 21 20 16 14 12 11 10 8 8 9 16 13 13 11 19 18 12 10 12 -6 41
19 17 15 15 11 8 6 4 4 2 3 6 7 9 12 14 15 16 17 17 21 23 26 26 23 22 20 17 16 16 14 13 14 15 16 12 15 24 6 19 55 4 17
16 15 12 12 9 4 3 1 1 3 6 11 14 16 16 18 18 21 24 24 22 23 23 24 23 23 20 21 20 16 17 15 15 21 17 20 22 22 35 -14 10 17 27
11 11 8 5 4 3 3 6 13 19 21 22 24 27 29 28 28 22 22 21 22 25 26 26 22 21 20 20 19 13 11 14 19 25 28 22 20 25 28 11 -4 18 25
Height
5814 5811 5809 5807 5805 5803 5800 5797 5794 5791 5788 5786 5783 5781 5779 5777 5775 5773 5770 5767 5763 5759 5756 5752 5749 5745 5742 5739 5736 5733 5730 5727 5724 5721 5718 5715 5712 5710 5708 5705 5703 5701 5699
5806 5804 5801 5799 5796 5794 5791 5788 5785 5783 5780 5777 5774 5772 5769 5766 5764 5762 5759 5756 5752 5749 5745 5742 5739 5735 5731 5728 5725 5722 5718 5716 5713 5711 5708 5705 5701 5699 5697 5695 5692 5690 5688
5798 5796 5794 5792 5789 5786 5784 5781 5778 5775 5772 5769 5767 5763 5760 5757 5755 5752 5749 5746 5741 5738 5735 5731 5728 5725 5722 5718 5715 5712 5709 5705 5703 5700 5698 5695 5691 5688 5686 5685 5683 5680 5677
5791 5789 5787 5784 5781 5779 5776 5773 5770 5766 5764 5761 5757 5754 5751 5747 5744 5741 5738 5734 5730 5726 5723 5719 5716 5714 5711 5707 5704 5700 5697 5695 5692 5689 5686 5683 5681 5678 5674 5672 5670 5668 5666
5785 5783 5780 5777 5774 5772 5769 5765 5762 5757 5754 5751 5746 5743 5740 5735 5731 5728 5725 5720 5717 5713 5711 5706 5704 5702 5698 5695 5691 5689 5686 5682 5680 5676 5674 5672 5669 5666 5663 5660 5658 5656 5654
5779 5776 5774 5771 5767 5764 5760 5756 5752 5748 5744 5740 5735 5733 5728 5724 5721 5717 5713 5707 5704 5701 5697 5695 5691 5688 5684 5681 5678 5675 5672 5669 5667 5663 5661 5658 5656 5655 5652 5648 5646 5644 5641
5771 5768 5766 5762 5758 5754 5750 5746 5741 5736 5733 5727 5723 5721 5717 5715 5709 5705 5699 5695 5691 5688 5684 5681 5677 5674 5671 5667 5663 5661 5658 5655 5651 5649 5648 5646 5643 5640 5638 5636 5634 5632 5629
5763 5759 5756 5752 5747 5743 5739 5734 5729 5725 5721 5715 5710 5704 5703 5703 5699 5691 5686 5681 5677 5673 5669 5666 5661 5658 5655 5651 5650 5646 5643 5640 5637 5635 5633 5632 5631 5627 5623 5622 5621 5619 5617
5753 5749 5744 5740 5736 5731 5727 5722 5716 5711 5706 5701 5696 5689 5683 5680 5677 5679 5674 5669 5664 5658 5654 5650 5646 5644 5640 5637 5635 5633 5630 5625 5621 5619 5618 5617 5617 5613 5610 5610 5608 5606 5604
5742 5738 5734 5729 5724 5719 5714 5709 5703 5698 5692 5687 5680 5674 5668 5663 5656 5655 5656 5651 5645 5642 5638 5635 5631 5629 5626 5622 5619 5617 5615 5610 5607 5604 5603 5602 5601 5600 5598 5597 5596 5593 5591
5734 5729 5724 5719 5714 5708 5702 5697 5691 5685 5678 5672 5665 5659 5652 5647 5641 5634 5631 5631 5629 5625 5621 5617 5613 5612 5610 5605 5604 5602 5600 5596 5593 5591 5588 5587 5586 5585 5583 5582 5581 5579 5577
5723 5718 5712 5706 5700 5694 5688 5683 5676 5670 5663 5657 5649 5643 5635 5629 5623 5615 5610 5608 5606 5609 5607 5603 5601 5593 5592 5589 5586 5585 5584 5580 5577 5575 5574 5572 5571 5570 5570 5569 5567 5565 5563
5710 5704 5697 5691 5685 5679 5672 5665 5659 5652 5646 5639 5632 5625 5618 5610 5601 5594 5588 5587 5581 5586 5581 5582 5582 5580 5578 5571 5568 5566 5565 5562 5559 5558 5555 5554 5554 5555 5554 5554 5552 5551 5549
5698 5692 5685 5677 5670 5662 5655 5648 5641 5632 5624 5616 5609 5602 5596 5590 5583 5574 5566 5561 5557 5558 5558 5556 5554 5554 5554 5553 5549 5545 5541 5543 5541 5539 5537 5536 5536 5537 5538 5537 5536 5536 5535
5684 5677 5669 5661 5652 5643 5634 5626 5618 5610 5601 5593 5586 5578 5569 5563 5556 5549 5543 5537 5529 5524 5531 5537 5530 5531 5529 5528 5528 5525 5521 5519 5522 5520 5519 5517 5516 5517 5519 5520 5520 5520 5521
5668 5660 5651 5641 5632 5622 5612 5603 5595 5586 5578 5570 5561 5554 5546 5537 5532 5524 5518 5512 5507 5497 5489 5507 5503 5504 5504 5502 5502 5502 5502 5500 5499 5498 5499 5499 5499 5499 5500 5501 5502 5503 5504
5649 5640 5630 5621 5612 5602 5592 5582 5571 5562 5555 5546 5536 5526 5521 5511 5507 5502 5496 5491 5485 5477 5467 5479 5477 5480 5480 5479 5482 5480 5480 5480 5479 5479 5479 5480 5480 5480 5482 5482 5483 5484 5486
5629 5620 5611 5601 5590 5579 5567 5555 5546 5535 5526 5518 5511 5503 5495 5488 5483 5477 5473 5470 5464 5459 5450 5446 5460 5457 5455 5456 5458 5458 5459 5458 5458 5461 5458 5459 5461 5462 5463 5465 5466 5467 5470
5612 5601 5589 5577 5566 5552 5539 5526 5515 5508 5501 5493 5486 5479 5473 5466 5461 5455 5450 5446 5442 5437 5432 5423 5426 5435 5436 5436 5432 5433 5434 5435 5437 5439 5439 5440 5441 5442 5444 5445 5447 5450 5452
5590 5577 5564 5550 5536 5524 5511 5502 5493 5487 5481 5473 5466 5459 5454 5447 5440 5435 5430 5426 5421 5415 5412 5407 5405 5408 5411 5414 5408 5409 5410 5412 5417 5418 5420 5421 5421 5423 5423 5421 5426 5430 5434
5564 5549 5537 5525 5512 5501 5490 5482 5477 5470 5465 5458 5451 5444 5437 5430 5421 5414 5408 5406 5397 5391 5389 5385 5384 5385 5389 5390 5387 5387 5387 5391 5396 5398 5399 5402 5401 5403 5405 5405 5407 5409 5416
5538 5524 5513 5502 5495 5485 5474 5466 5457 5452 5445 5438 5433 5426 5418 5410 5401 5393 5388 5380 5371 5362 5362 5360 5361 5361 5367 5364 5367 5367 5367 5369 5376 5377 5377 5382 5381 5384 5385 5389 5391 5394 5399
5515 5503 5493 5483 5475 5466 5457 5449 5439 5431 5423 5415 5407 5399 5394 5386 5376 5368 5363 5354 5347 5339 5331 5331 5333 5337 5340 5342 5343 5345 5346 5347 5352 5357 5355 5360 5361 5365 5367 5371 5374 5376 5381
5494 5484 5475 5465 5457 5448 5438 5428 5418 5408 5399 5388 5377 5369 5362 5355 5346 5336 5332 5327 5323 5316 5311 5307 5305 5310 5314 5318 5318 5321 5324 5325 5330 5335 5333 5336 5342 5345 5350 5355 5356 5362 5365
5477 5467 5457 5447 5437 5430 5417 5404 5390 5380 5369 5358 5348 5341 5332 5325 5317 5307 5302 5299 5295 5293 5289 5287 5287 5288 5291 5296 5298 5298 5302 5303 5309 5313 5314 5316 5323 5326 5333 5337 5342 5347 5350
5459 5449 5441 5427 5416 5404 5392 5376 5362 5347 5333 5324 5317 5312 5306 5298 5291 5283 5278 5274 5271 5270 5270 5272 5271 5272 5274 5278 5281 5281 5283 5285 5288 5291 5300 5301 5307 5311 5318 5324 5328 5332 5337